| time (UTC) | temp F | wind direction | speed MPH | gust MPH | rain 1hr in | rain 24hr in | rain mn in | humidity % | barometer mb |
| 20260509070028 | 50 | 211 | 0.0 | 0.0 | 0.00 | 0.20 | 0.00 | 95 | 1007.6 |
| 20260509064510 | 51 | 210 | 0.0 | 0.0 | 0.00 | 0.20 | 0.00 | 95 | 1007.6 |
| 20260509063011 | 51 | 210 | 0.0 | 2.0 | 0.00 | 0.20 | 0.00 | 94 | 1007.5 |
| 20260509061555 | 51 | 187 | 0.0 | 0.0 | 0.00 | 0.20 | 0.00 | 94 | 1007.7 |
| 20260509060052 | 52 | 187 | 0.0 | 0.0 | 0.00 | 0.20 | 0.00 | 94 | 1007.9 |
| 20260509054553 | 52 | 187 | 0.0 | 1.0 | 0.00 | 0.20 | 0.00 | 94 | 1008.0 |
| 20260509053049 | 52 | 185 | 0.0 | 4.0 | 0.00 | 0.20 | 0.00 | 93 | 1008.1 |
| 20260509051557 | 53 | 180 | 0.0 | 3.0 | 0.00 | 0.20 | 0.00 | 93 | 1008.2 |
| 20260509050047 | 53 | 180 | 0.0 | 3.0 | 0.00 | 0.20 | 0.00 | 92 | 1008.1 |
| 20260509044543 | 54 | 184 | 0.0 | 5.0 | 0.00 | 0.20 | 0.00 | 91 | 1008.1 |
| 20260509043041 | 54 | 206 | 0.0 | 3.0 | 0.00 | 0.20 | 0.00 | 91 | 1008.1 |
| 20260509041521 | 54 | 188 | 0.0 | 4.0 | 0.00 | 0.20 | 0.00 | 90 | 1008.2 |
| 20260509040018 | 54 | 163 | 0.0 | 5.0 | 0.00 | 0.20 | 0.00 | 90 | 1008.3 |
| 20260509034617 | 55 | 180 | 0.0 | 4.0 | 0.00 | 0.20 | 0.00 | 89 | 1008.6 |
| 20260509033111 | 55 | 160 | 1.0 | 3.0 | 0.00 | 0.20 | 0.00 | 89 | 1008.6 |
| 20260509031557 | 55 | 193 | 0.0 | 3.0 | 0.00 | 0.20 | 0.00 | 88 | 1008.5 |
| 20260509030045 | 56 | 232 | 0.0 | 4.0 | 0.00 | 0.20 | 0.00 | 88 | 1008.6 |
| 20260509024543 | 56 | 180 | 0.0 | 4.0 | 0.00 | 0.20 | 0.00 | 87 | 1008.6 |
| 20260509023041 | 57 | 174 | 0.0 | 4.0 | 0.00 | 0.20 | 0.00 | 86 | 1008.4 |
| 20260509021538 | 57 | 197 | 0.0 | 3.0 | 0.00 | 0.20 | 0.00 | 85 | 1008.5 |
| 20260509020038 | 58 | 194 | 0.0 | 4.0 | 0.00 | 0.20 | 0.20 | 84 | 1008.5 |
| 20260509014543 | 58 | 175 | 2.0 | 6.0 | 0.00 | 0.20 | 0.20 | 83 | 1008.3 |
| 20260509013042 | 59 | 173 | 0.0 | 2.0 | 0.00 | 0.20 | 0.20 | 81 | 1008.2 |
| 20260509011536 | 60 | 175 | 0.0 | 3.0 | 0.00 | 0.20 | 0.20 | 77 | 1008.0 |
| 20260509010016 | 60 | 210 | 0.0 | 2.0 | 0.00 | 0.20 | 0.20 | 71 | 1008.1 |
| 20260509004517 | 61 | 200 | 0.0 | 3.0 | 0.00 | 0.20 | 0.20 | 67 | 1008.1 |
| 20260509003058 | 62 | 164 | 0.0 | 6.0 | 0.00 | 0.20 | 0.20 | 66 | 1008.1 |
| 20260509001558 | 63 | 163 | 0.0 | 5.0 | 0.00 | 0.20 | 0.20 | 66 | 1008.0 |
| 20260509000040 | 64 | 192 | 1.0 | 7.0 | 0.00 | 0.20 | 0.20 | 67 | 1008.0 |
| 20260508234540 | 65 | 117 | 0.0 | 6.0 | 0.00 | 0.20 | 0.20 | 66 | 1008.1 |
| 20260508233027 | 66 | 70 | 1.0 | 7.0 | 0.00 | 0.20 | 0.20 | 62 | 1008.0 |
| 20260508231521 | 65 | 161 | 1.0 | 7.0 | 0.00 | 0.20 | 0.20 | 60 | 1008.1 |
| 20260508230002 | 65 | 263 | 1.0 | 6.0 | 0.00 | 0.20 | 0.20 | 61 | 1008.2 |
| 20260508224502 | 66 | 223 | 2.0 | 5.0 | 0.00 | 0.20 | 0.20 | 62 | 1008.2 |
| 20260508223045 | 67 | 235 | 1.0 | 7.0 | 0.00 | 0.20 | 0.20 | 62 | 1008.3 |
| 20260508221544 | 67 | 132 | 1.0 | 12.0 | 0.00 | 0.20 | 0.20 | 61 | 1008.2 |
| 20260508220024 | 68 | 286 | 0.0 | 6.0 | 0.00 | 0.20 | 0.20 | 60 | 1008.2 |
| 20260508214524 | 67 | 267 | 2.0 | 8.0 | 0.00 | 0.20 | 0.20 | 58 | 1008.3 |
| 20260508213003 | 67 | 351 | 0.0 | 5.0 | 0.00 | 0.20 | 0.20 | 58 | 1008.5 |
| 20260508211501 | 66 | 288 | 0.0 | 7.0 | 0.00 | 0.20 | 0.20 | 58 | 1008.6 |
| 20260508210041 | 65 | 275 | 1.0 | 5.0 | 0.00 | 0.20 | 0.20 | 62 | 1008.7 |
| 20260508204547 | 65 | 254 | 2.0 | 9.0 | 0.00 | 0.20 | 0.20 | 64 | 1008.8 |
| 20260508203019 | 65 | 339 | 0.0 | 4.0 | 0.00 | 0.20 | 0.20 | 68 | 1009.0 |
| 20260508201516 | 64 | 328 | 0.0 | 3.0 | 0.00 | 0.20 | 0.20 | 68 | 1009.1 |
| 20260508200108 | 64 | 302 | 1.0 | 6.0 | 0.00 | 0.20 | 0.20 | 69 | 1009.3 |
| 20260508194601 | 63 | 329 | 0.0 | 5.0 | 0.00 | 0.20 | 0.20 | 72 | 1009.6 |
| 20260508193034 | 63 | 336 | 1.0 | 9.0 | 0.00 | 0.20 | 0.20 | 72 | 1009.8 |
| 20260508191538 | 63 | 349 | 0.0 | 7.0 | 0.00 | 0.20 | 0.20 | 72 | 1010.1 |
| 20260508190018 | 62 | 280 | 3.0 | 9.0 | 0.00 | 0.20 | 0.20 | 70 | 1010.0 |
| 20260508184514 | 62 | 219 | 0.0 | 6.0 | 0.00 | 0.20 | 0.20 | 70 | 1010.2 |
| 20260508183057 | 63 | 225 | 0.0 | 7.0 | 0.00 | 0.20 | 0.20 | 69 | 1010.2 |
| 20260508181556 | 62 | 225 | 1.0 | 6.0 | 0.00 | 0.20 | 0.20 | 69 | 1010.2 |
| 20260508180033 | 62 | 326 | 1.0 | 8.0 | 0.00 | 0.20 | 0.20 | 70 | 1010.6 |
| 20260508174531 | 62 | 287 | 0.0 | 4.0 | 0.00 | 0.20 | 0.20 | 71 | 1011.0 |
| 20260508173013 | 61 | 12 | 0.0 | 7.0 | 0.00 | 0.20 | 0.20 | 73 | 1011.0 |
| 20260508171523 | 62 | 248 | 1.0 | 5.0 | 0.00 | 0.20 | 0.20 | 69 | 1011.1 |
| 20260508170056 | 61 | 109 | 0.0 | 3.0 | 0.00 | 0.20 | 0.20 | 70 | 1011.0 |
| 20260508164553 | 61 | 239 | 0.0 | 5.0 | 0.00 | 0.20 | 0.20 | 71 | 1011.3 |
| 20260508163034 | 61 | 268 | 0.0 | 6.0 | 0.00 | 0.20 | 0.20 | 70 | 1011.6 |
| 20260508161541 | 61 | 199 | 1.0 | 5.0 | 0.00 | 0.20 | 0.20 | 72 | 1011.6 |
| 20260508160016 | 61 | 254 | 1.0 | 6.0 | 0.00 | 0.20 | 0.20 | 69 | 1011.6 |
| 20260508154511 | 61 | 158 | 1.0 | 8.0 | 0.00 | 0.20 | 0.20 | 72 | 1011.8 |
| 20260508153051 | 60 | 240 | 0.0 | 9.0 | 0.00 | 0.20 | 0.20 | 72 | 1011.8 |
| 20260508151554 | 60 | 206 | 1.0 | 9.0 | 0.00 | 0.20 | 0.20 | 75 | 1011.9 |
| 20260508150029 | 59 | 184 | 0.0 | 7.0 | 0.00 | 0.20 | 0.20 | 79 | 1012.1 |
| 20260508144527 | 58 | 165 | 2.0 | 6.0 | 0.00 | 0.20 | 0.20 | 79 | 1012.3 |
| 20260508143009 | 58 | 188 | 2.0 | 7.0 | 0.00 | 0.20 | 0.20 | 79 | 1012.3 |
| 20260508141516 | 59 | 170 | 2.0 | 6.0 | 0.00 | 0.20 | 0.20 | 79 | 1012.1 |
| 20260508140054 | 57 | 190 | 2.0 | 9.0 | 0.00 | 0.20 | 0.20 | 80 | 1012.3 |
| 20260508134550 | 57 | 204 | 2.0 | 7.0 | 0.00 | 0.20 | 0.20 | 84 | 1012.3 |
| 20260508133023 | 55 | 140 | 0.0 | 6.0 | 0.00 | 0.20 | 0.20 | 88 | 1012.3 |
| 20260508131520 | 54 | 205 | 1.0 | 4.0 | 0.00 | 0.20 | 0.20 | 91 | 1012.4 |
| 20260508130001 | 54 | 179 | 1.0 | 3.0 | 0.00 | 0.20 | 0.20 | 93 | 1012.4 |
| 20260508124605 | 52 | 172 | 0.0 | 5.0 | 0.00 | 0.20 | 0.20 | 95 | 1012.5 |
| 20260508123053 | 52 | 190 | 1.0 | 5.0 | 0.00 | 0.20 | 0.20 | 96 | 1012.6 |
| 20260508121544 | 51 | 147 | 0.0 | 4.0 | 0.00 | 0.20 | 0.20 | 96 | 1012.6 |
| 20260508120023 | 52 | 275 | 0.0 | 1.0 | 0.00 | 0.20 | 0.20 | 97 | 1012.6 |
| 20260508114526 | 51 | 275 | 0.0 | 0.0 | 0.00 | 0.20 | 0.20 | 97 | 1012.7 |
| 20260508113011 | 50 | 275 | 0.0 | 0.0 | 0.01 | 0.20 | 0.20 | 96 | 1012.5 |
| 20260508111504 | 50 | 275 | 0.0 | 0.0 | 0.02 | 0.20 | 0.20 | 96 | 1012.5 |
| 20260508110045 | 51 | 275 | 0.0 | 0.0 | 0.02 | 0.20 | 0.20 | 96 | 1012.4 |
| 20260508104552 | 51 | 275 | 0.0 | 0.0 | 0.03 | 0.20 | 0.20 | 96 | 1012.4 |
| 20260508103028 | 51 | 275 | 0.0 | 0.0 | 0.03 | 0.19 | 0.19 | 96 | 1012.6 |
| 20260508101525 | 51 | 275 | 0.0 | 0.0 | 0.02 | 0.18 | 0.18 | 96 | 1012.6 |
| 20260508100008 | 51 | 275 | 0.0 | 1.0 | 0.03 | 0.18 | 0.18 | 96 | 1012.5 |
| 20260508094517 | 51 | 275 | 0.0 | 3.0 | 0.03 | 0.17 | 0.17 | 96 | 1012.6 |
| 20260508093054 | 51 | 275 | 0.0 | 0.0 | 0.03 | 0.16 | 0.16 | 96 | 1012.9 |
| 20260508091556 | 51 | 275 | 0.0 | 0.0 | 0.05 | 0.16 | 0.16 | 95 | 1012.9 |
| 20260508090042 | 51 | 275 | 0.0 | 0.0 | 0.04 | 0.15 | 0.15 | 95 | 1012.9 |
| 20260508084528 | 51 | 275 | 0.0 | 0.0 | 0.03 | 0.14 | 0.14 | 94 | 1012.7 |
| 20260508083010 | 51 | 275 | 0.0 | 0.0 | 0.03 | 0.13 | 0.13 | 94 | 1013.3 |
| 20260508081524 | 51 | 211 | 0.0 | 1.0 | 0.01 | 0.11 | 0.11 | 93 | 1013.0 |
| 20260508080052 | 51 | 200 | 2.0 | 6.0 | 0.03 | 0.11 | 0.11 | 93 | 1013.1 |
| 20260508074548 | 51 | 221 | 1.0 | 4.0 | 0.04 | 0.11 | 0.11 | 94 | 1013.3 |
| 20260508073035 | 51 | 119 | 0.0 | 2.0 | 0.05 | 0.10 | 0.10 | 94 | 1013.3 |
| 20260508071534 | 51 | 240 | 0.0 | 4.0 | 0.08 | 0.10 | 0.10 | 93 | 1013.6 |